Location: Newark
(34.9500°N, 139.9667°E)
Time: 11:20:25
(UTC+00:00)

Vanguard 2 Rocket - Pass Details

Date: 10 December 2019
Orbit: 554 x 3326 km, 32.9° (Epoch: 21 January)

Event Time Altitude Azimuth Distance (km) Brightness Sun altitude
Rises 14:14:06 0° 277° (W) 3,867 - -77.3°
Reaches altitude 10° 14:17:47 10° 264° (W) 2,512 - -77.5°
Maximum altitude 14:22:03 23° 213° (SSW) 1,456 - -77.7°
Drops below altitude 10° 14:25:24 10° 160° (SSE) 1,913 - -77.9°
Sets 14:27:48 0° 143° (SE) 2,725 - -77.9°
